�������l�o���
Date,Time,MP-1(��Sv/h),MP-2(��Sv/h),MP-3(��Sv/h),MP-4(��Sv/h),MP-5(��Sv/h),MP-6(��Sv/h),MP-7(��Sv/h),MP-8(��Sv/h),����,����(m/s),���J
2015/02/02,00:00,1.630,2.878,2.893,2.822,2.893,0.983,1.685,2.018,�쐼,1.9,��
2015/02/02,00:10,1.633,2.878,2.892,2.823,2.897,0.982,1.685,2.017,�쐼,1.3,��
2015/02/02,00:20,1.633,2.882,2.892,2.822,2.895,0.982,1.685,2.015,���쐼,2.6,��
2015/02/02,00:30,1.632,2.877,2.892,2.818,2.890,0.982,1.685,2.017,��,2.4,��
2015/02/02,00:40,1.630,2.878,2.892,2.818,2.892,0.982,1.685,2.017,���k��,3.0,��
2015/02/02,00:50,1.628,2.877,2.897,2.822,2.890,0.983,1.688,2.017,���k��,2.2,��
2015/02/02,01:00,1.630,2.882,2.893,2.823,2.890,0.983,1.687,2.017,��,2.2,��
2015/02/02,01:10,1.632,2.882,2.890,2.818,2.893,0.983,1.685,2.018,��,1.5,��
2015/02/02,01:20,1.635,2.878,2.890,2.822,2.892,0.982,1.685,2.018,��,1.7,��
2015/02/02,01:30,1.632,2.878,2.890,2.820,2.892,0.983,1.687,2.017,��,1.0,��
2015/02/02,01:40,1.633,2.880,2.892,2.823,2.892,0.982,1.688,2.015,��,1.0,��
2015/02/02,01:50,1.633,2.880,2.890,2.822,2.893,0.983,1.685,2.018,��,1.1,��
2015/02/02,02:00,1.632,2.880,2.887,2.822,2.892,0.983,1.687,2.018,���k��,1.8,��
2015/02/02,02:10,1.635,2.878,2.890,2.825,2.892,0.983,1.687,2.017,�k��,2.7,��
2015/02/02,02:20,1.633,2.882,2.888,2.828,2.898,0.985,1.687,2.022,���k��,4.0,��
2015/02/02,02:30,1.635,2.878,2.890,2.818,2.893,0.983,1.687,2.017,���k��,3.3,��
2015/02/02,02:40,1.633,2.877,2.893,2.822,2.892,0.983,1.685,2.017,���k��,3.5,��
2015/02/02,02:50,1.637,2.880,2.893,2.820,2.892,0.982,1.683,2.015,���k��,3.9,��
2015/02/02,03:00,1.633,2.877,2.892,2.823,2.893,0.982,1.685,2.017,�k��,4.2,��
2015/02/02,03:10,1.633,2.880,2.892,2.817,2.893,0.985,1.687,2.017,���k��,2.9,��
2015/02/02,03:20,1.632,2.882,2.892,2.822,2.893,0.983,1.685,2.017,���k��,3.0,��
2015/02/02,03:30,1.635,2.880,2.890,2.823,2.897,0.983,1.687,2.018,��,2.3,��
2015/02/02,03:40,1.635,2.880,2.892,2.822,2.893,0.983,1.683,2.017,���쐼,2.7,��
2015/02/02,03:50,1.632,2.880,2.893,2.820,2.893,0.983,1.685,2.017,���쐼,3.6,��
2015/02/02,04:00,1.633,2.885,2.890,2.822,2.893,0.983,1.687,2.017,���쐼,3.5,��
2015/02/02,04:10,1.635,2.880,2.890,2.822,2.895,0.982,1.683,2.015,��,5.1,��
2015/02/02,04:20,1.635,2.882,2.892,2.822,2.890,0.983,1.687,2.018,���k��,4.1,��
2015/02/02,04:30,1.637,2.880,2.890,2.820,2.888,0.983,1.685,2.018,���k��,4.1,��
2015/02/02,04:40,1.635,2.878,2.892,2.820,2.895,0.985,1.685,2.017,���k��,3.1,��
2015/02/02,04:50,1.637,2.880,2.887,2.822,2.893,0.983,1.685,2.013,���k��,3.1,��
2015/02/02,05:00,1.633,2.880,2.893,2.822,2.890,0.982,1.687,2.017,�k��,2.3,��
2015/02/02,05:10,1.635,2.878,2.888,2.820,2.893,0.982,1.687,2.018,���k��,2.6,��
2015/02/02,05:20,1.632,2.880,2.888,2.822,2.890,0.982,1.685,2.015,���k��,1.9,��
2015/02/02,05:30,1.635,2.882,2.888,2.822,2.887,0.982,1.687,2.013,�쐼,0.9,��
2015/02/02,05:40,1.635,2.882,2.890,2.822,2.888,0.982,1.685,2.017,��,2.5,��
2015/02/02,05:50,1.633,2.880,2.888,2.822,2.890,0.983,1.685,2.013,�쐼,1.6,��
2015/02/02,06:00,1.633,2.882,2.890,2.823,2.893,0.987,1.683,2.015,��,2.2,��
2015/02/02,06:10,1.633,2.882,2.892,2.820,2.892,0.982,1.683,2.013,���쐼,1.6,��
2015/02/02,06:20,1.632,2.878,2.888,2.823,2.892,0.980,1.682,2.017,���쐼,2.3,��
2015/02/02,06:30,1.632,2.878,2.887,2.820,2.893,0.982,1.685,2.017,���쐼,3.8,��
2015/02/02,06:40,1.633,2.880,2.888,2.825,2.888,0.982,1.685,2.018,���쐼,4.0,��
2015/02/02,06:50,1.630,2.880,2.890,2.823,2.890,0.982,1.685,2.020,���쐼,4.0,��
2015/02/02,07:00,1.630,2.882,2.890,2.822,2.892,0.982,1.687,2.018,��,3.5,��
2015/02/02,07:10,1.630,2.878,2.890,2.823,2.893,0.982,1.687,2.018,��,2.7,��
2015/02/02,07:20,1.632,2.880,2.892,2.823,2.892,0.983,1.683,2.018,��,2.8,��
2015/02/02,07:30,1.635,2.880,2.890,2.827,2.893,0.982,1.687,2.018,��,4.0,��
2015/02/02,07:40,1.637,2.880,2.888,2.825,2.895,0.983,1.685,2.018,���k��,4.5,��
2015/02/02,07:50,1.635,2.883,2.892,2.825,2.893,0.985,1.685,2.020,���k��,4.6,��
2015/02/02,08:00,1.633,2.882,2.888,2.822,2.893,0.983,1.687,2.015,���k��,3.3,��
2015/02/02,08:10,1.637,2.880,2.892,2.825,2.895,0.983,1.688,2.020,�k�k��,2.5,��
2015/02/02,08:20,1.637,2.882,2.892,2.825,2.898,0.987,1.687,2.015,�k��,1.9,��
2015/02/02,08:30,1.642,2.885,2.895,2.823,2.895,0.985,1.687,2.018,�k��,0.8,��
2015/02/02,08:40,1.643,2.887,2.895,2.823,2.898,0.983,1.688,2.018,��쐼,1.3,��
2015/02/02,08:50,1.638,2.885,2.893,2.825,2.895,0.985,1.690,2.018,�쐼,2.9,��
2015/02/02,09:00,1.638,2.883,2.895,2.827,2.893,0.982,1.687,2.020,��쐼,2.9,��
2015/02/02,09:10,1.642,2.887,2.897,2.827,2.898,0.983,1.690,2.018,��쐼,2.8,��
2015/02/02,09:20,1.640,2.887,2.895,2.828,2.895,0.987,1.690,2.018,�쐼,2.9,��
2015/02/02,09:30,1.638,2.888,2.897,2.832,2.898,0.985,1.690,2.017,��쐼,2.8,��
2015/02/02,09:40,1.643,2.887,2.897,2.833,2.898,0.987,1.688,2.018,��,3.4,��
2015/02/02,09:50,1.643,2.890,2.900,2.827,2.900,0.985,1.692,2.018,��쐼,3.2,��
2015/02/02,10:00,1.640,2.890,2.898,2.828,2.902,0.987,1.692,2.018,��쐼,2.8,��
2015/02/02,10:10,1.640,2.892,2.900,2.833,2.903,0.985,1.692,2.017,��쐼,2.7,��
2015/02/02,10:20,1.642,2.893,2.903,2.833,2.902,0.987,1.693,2.017,���k��,6.1,��
2015/02/02,10:30,1.640,2.895,2.898,2.837,2.908,0.987,1.690,2.020,��,4.5,��
2015/02/02,10:40,1.642,2.897,2.902,2.837,2.910,0.988,1.693,2.017,���k��,6.4,��
2015/02/02,10:50,1.643,2.897,2.905,2.837,2.908,0.988,1.692,2.017,���k��,4.7,��
2015/02/02,11:00,1.647,2.897,2.903,2.835,2.912,0.992,1.692,2.020,���k��,4.9,��
2015/02/02,11:10,1.643,2.900,2.893,2.838,2.915,0.990,1.690,2.020,���k��,5.3,��
2015/02/02,11:20,1.645,2.900,2.885,2.840,2.913,0.990,1.690,2.022,�k��,7.4,��
2015/02/02,11:30,1.643,2.900,2.902,2.840,2.915,0.990,1.693,2.022,�k��,6.8,��
2015/02/02,11:40,1.645,2.898,2.912,2.838,2.922,0.988,1.695,2.020,�k��,5.0,��
2015/02/02,11:50,1.647,2.905,2.910,2.840,2.922,0.990,1.695,2.023,�k��,9.6,��
2015/02/02,12:00,1.647,2.907,2.915,2.840,2.930,0.990,1.695,2.022,�k��,9.1,��
2015/02/02,12:10,1.647,2.907,2.920,2.843,2.932,0.988,1.693,2.022,�k��,9.3,��
2015/02/02,12:20,1.650,2.908,2.922,2.843,2.938,0.988,1.697,2.023,�k��,12.4,��
2015/02/02,12:30,1.652,2.908,2.922,2.847,2.942,0.990,1.697,2.025,���k��,9.4,��
2015/02/02,12:40,1.650,2.913,2.928,2.843,2.943,0.992,1.697,2.025,���k��,7.5,��
2015/02/02,12:50,1.650,2.915,2.928,2.845,2.948,0.992,1.695,2.025,���k��,7.2,��
2015/02/02,13:00,1.653,2.920,2.930,2.847,2.955,0.993,1.698,2.023,���k��,6.6,��
2015/02/02,13:10,1.652,2.920,2.933,2.848,2.960,0.995,1.695,2.030,�k��,8.2,��
2015/02/02,13:20,1.648,2.922,2.935,2.847,2.967,0.993,1.697,2.027,�k��,6.3,��
2015/02/02,13:30,1.653,2.927,2.937,2.847,2.967,0.995,1.698,2.027,�k��,7.1,��
2015/02/02,13:40,1.652,2.930,2.935,2.847,2.972,0.993,1.700,2.027,�k��,7.4,��
2015/02/02,13:50,1.652,2.930,2.938,2.847,2.975,0.995,1.697,2.032,�k��,5.3,��
2015/02/02,14:00,1.652,2.930,2.937,2.850,2.982,0.993,1.697,2.032,�k��,6.3,��
2015/02/02,14:10,1.653,2.930,2.938,2.850,2.985,0.997,1.698,2.030,�k��,3.8,��
2015/02/02,14:20,1.653,2.932,2.942,2.848,2.988,0.995,1.700,2.032,�k��,4.2,��
2015/02/02,14:30,1.655,2.937,2.942,2.848,2.988,0.993,1.702,2.030,�k��,4.2,��
2015/02/02,14:40,1.655,2.942,2.947,2.852,2.993,0.995,1.700,2.033,�k��,4.0,��
2015/02/02,14:50,1.655,2.940,2.947,2.853,2.993,0.995,1.702,2.032,�k��,6.0,��
2015/02/02,15:00,1.653,2.940,2.943,2.852,2.998,0.995,1.700,2.035,���k��,5.3,��
2015/02/02,15:10,1.652,2.940,2.947,2.852,3.002,0.997,1.698,2.035,���k��,7.1,��
2015/02/02,15:20,1.653,2.942,2.950,2.853,3.000,0.997,1.700,2.037,���k��,4.8,��
2015/02/02,15:30,1.657,2.947,2.947,2.853,3.005,0.997,1.700,2.040,���k��,5.6,��
2015/02/02,15:40,1.655,2.947,2.947,2.853,3.005,0.997,1.702,2.038,���k��,5.4,��
2015/02/02,15:50,1.653,2.948,2.948,2.855,3.003,1.007,1.702,2.040,���k��,5.5,��
2015/02/02,16:00,1.655,2.948,2.950,2.857,3.005,1.003,1.703,2.037,�k��,4.6,��
2015/02/02,16:10,1.657,2.947,2.952,2.853,3.010,1.000,1.702,2.035,�k��,5.2,��
2015/02/02,16:20,1.655,2.950,2.953,2.857,3.007,0.997,1.702,2.037,�k��,5.8,��
2015/02/02,16:30,1.653,2.948,2.952,2.855,3.010,0.997,1.702,2.038,�k��,5.4,��
2015/02/02,16:40,1.655,2.948,2.950,2.858,3.010,0.998,1.705,2.033,�k��,4.9,��
2015/02/02,16:50,1.655,2.948,2.953,2.857,3.013,0.997,1.705,2.037,�k��,4.5,��
2015/02/02,17:00,1.655,2.952,2.953,2.855,3.015,0.998,1.702,2.033,�k��,5.3,��
2015/02/02,17:10,1.657,2.953,2.952,2.857,3.017,0.998,1.702,2.038,�k��,6.6,��
2015/02/02,17:20,1.657,2.955,2.953,2.855,3.013,0.997,1.703,2.040,�k��,7.0,��
2015/02/02,17:30,1.657,2.955,2.955,2.858,3.017,0.995,1.703,2.038,���k��,6.9,��
2015/02/02,17:40,1.657,2.955,2.952,2.855,3.018,0.995,1.700,2.042,�k��,5.0,��
2015/02/02,17:50,1.655,2.953,2.950,2.853,3.020,0.998,1.705,2.038,���k��,5.2,��
2015/02/02,18:00,1.655,2.953,2.952,2.855,3.018,0.998,1.702,2.038,�k��,4.5,��
2015/02/02,18:10,1.657,2.955,2.952,2.853,3.018,1.002,1.702,2.040,�k��,4.9,��
2015/02/02,18:20,1.655,2.955,2.958,2.855,3.018,1.000,1.703,2.037,�k��,3.8,��
2015/02/02,18:30,1.653,2.957,2.955,2.857,3.020,1.000,1.703,2.037,���k��,3.1,��
2015/02/02,18:40,1.657,2.955,2.957,2.855,3.023,1.002,1.702,2.038,���k��,2.9,��
2015/02/02,18:50,1.655,2.950,2.953,2.855,3.020,1.000,1.702,2.040,���k��,3.8,��
2015/02/02,19:00,1.657,2.953,2.955,2.852,3.022,0.995,1.702,2.040,���k��,4.1,��
2015/02/02,19:10,1.655,2.953,2.955,2.852,3.020,0.997,1.702,2.040,���k��,4.3,��
2015/02/02,19:20,1.655,2.955,2.957,2.852,3.023,0.995,1.702,2.040,���k��,5.3,��
2015/02/02,19:30,1.655,2.955,2.955,2.852,3.018,0.995,1.702,2.040,��,4.1,��
2015/02/02,19:40,1.653,2.955,2.952,2.857,3.022,0.998,1.702,2.037,���k��,3.3,��
2015/02/02,19:50,1.657,2.955,2.952,2.855,3.023,0.995,1.700,2.038,���k��,3.8,��
2015/02/02,20:00,1.655,2.957,2.952,2.855,3.023,0.997,1.702,2.040,���k��,3.1,��
2015/02/02,20:10,1.657,2.953,2.955,2.857,3.020,0.995,1.700,2.040,��,2.7,��
2015/02/02,20:20,1.655,2.953,2.958,2.857,3.025,0.997,1.702,2.037,��,2.9,��
2015/02/02,20:30,1.657,2.957,2.957,2.857,3.022,0.997,1.702,2.040,���쐼,2.4,��
2015/02/02,20:40,1.657,2.960,2.953,2.858,3.022,0.993,1.702,2.038,���쐼,3.0,��
2015/02/02,20:50,1.658,2.957,2.958,2.855,3.023,0.995,1.700,2.038,��,2.8,��
2015/02/02,21:00,1.655,2.953,2.960,2.857,3.025,0.995,1.698,2.038,���쐼,2.2,��
2015/02/02,21:10,1.657,2.953,2.955,2.855,3.023,0.997,1.702,2.042,���쐼,3.3,��
2015/02/02,21:20,1.655,2.955,2.955,2.857,3.023,0.993,1.702,2.040,���쐼,4.2,��
2015/02/02,21:30,1.653,2.958,2.957,2.855,3.025,0.995,1.702,2.038,���쐼,3.9,��
2015/02/02,21:40,1.657,2.955,2.955,2.853,3.025,0.995,1.698,2.038,���쐼,5.2,��
2015/02/02,21:50,1.658,2.958,2.953,2.855,3.020,0.998,1.700,2.038,���쐼,4.2,��
2015/02/02,22:00,1.658,2.957,2.953,2.857,3.023,0.997,1.700,2.038,��,4.1,��
2015/02/02,22:10,1.658,2.958,2.957,2.853,3.022,0.997,1.700,2.042,��,4.0,��
2015/02/02,22:20,1.657,2.957,2.957,2.855,3.027,0.995,1.702,2.040,���k��,4.2,��
2015/02/02,22:30,1.658,2.958,2.957,2.858,3.025,0.997,1.702,2.040,���k��,3.9,��
2015/02/02,22:40,1.658,2.957,2.955,2.858,3.023,0.993,1.698,2.038,���k��,3.3,��
2015/02/02,22:50,1.660,2.958,2.957,2.858,3.023,0.995,1.700,2.037,���k��,3.8,��
2015/02/02,23:00,1.658,2.955,2.958,2.858,3.023,0.995,1.700,2.038,�k��,3.4,��
2015/02/02,23:10,1.657,2.955,2.960,2.857,3.025,0.993,1.700,2.042,���k��,3.5,��
2015/02/02,23:20,1.658,2.957,2.957,2.855,3.025,0.997,1.702,2.040,���k��,3.5,��
2015/02/02,23:30,1.660,2.957,2.957,2.855,3.023,0.995,1.700,2.038,���k��,4.4,��
2015/02/02,23:40,1.657,2.958,2.955,2.858,3.025,0.995,1.700,2.042,���k��,4.7,��
2015/02/02,23:50,1.658,2.955,2.962,2.860,3.020,0.997,1.700,2.038,���k��,5.1,��
